| time (UTC) | temp C | wind direction | speed KPH | gust KPH | rain 1hr cm | rain 24hr cm | rain mn cm | humidity % | barometer mb |
| 20260903200045 | 15 | 281 | 17.7 | 30.6 | 0.00 | 0.84 | 0.84 | 91 | 1006.2 |
| 20260903194549 | 15 | 276 | 19.3 | 35.4 | 0.00 | 0.84 | 0.84 | 91 | 1006.0 |
| 20260903193052 | 15 | 253 | 16.1 | 29.0 | 0.00 | 0.84 | 0.84 | 92 | 1006.1 |
| 20260903191545 | 15 | 257 | 11.3 | 22.5 | 0.00 | 0.84 | 0.84 | 92 | 1006.3 |
| 20260903190047 | 15 | 284 | 14.5 | 29.0 | 0.00 | 0.84 | 0.84 | 92 | 1006.4 |
| 20260903184542 | 15 | 259 | 17.7 | 29.0 | 0.00 | 0.84 | 0.84 | 92 | 1006.1 |
| 20260903183045 | 16 | 290 | 16.1 | 25.7 | 0.00 | 0.84 | 0.84 | 92 | 1006.0 |
| 20260903181540 | 16 | 284 | 20.9 | 33.8 | 0.00 | 0.84 | 0.84 | 92 | 1006.0 |
| 20260903180038 | 16 | 275 | 20.9 | 32.2 | 0.00 | 0.84 | 0.84 | 92 | 1005.9 |
| 20260903174537 | 16 | 281 | 20.9 | 35.4 | 0.00 | 0.84 | 0.84 | 92 | 1005.7 |
| 20260903173038 | 16 | 294 | 27.4 | 40.2 | 0.00 | 0.84 | 0.84 | 92 | 1005.5 |
| 20260903171532 | 16 | 283 | 22.5 | 38.6 | 0.00 | 0.84 | 0.84 | 92 | 1005.2 |
| 20260903170033 | 17 | 275 | 14.5 | 27.4 | 0.00 | 0.84 | 0.84 | 91 | 1005.1 |
| 20260903164529 | 17 | 288 | 11.3 | 24.1 | 0.00 | 0.84 | 0.84 | 91 | 1004.9 |
| 20260903163029 | 17 | 311 | 17.7 | 33.8 | 0.00 | 0.84 | 0.84 | 90 | 1004.8 |
| 20260903161528 | 17 | 279 | 27.4 | 41.8 | 0.00 | 0.84 | 0.84 | 90 | 1004.6 |
| 20260903160028 | 18 | 304 | 17.7 | 38.6 | 0.00 | 0.84 | 0.84 | 92 | 1004.6 |
| 20260903154527 | 18 | 281 | 20.9 | 29.0 | 0.00 | 0.84 | 0.84 | 92 | 1004.4 |
| 20260903153026 | 18 | 290 | 19.3 | 40.2 | 0.00 | 0.84 | 0.84 | 92 | 1004.5 |
| 20260903151530 | 18 | 261 | 30.6 | 46.7 | 0.00 | 0.84 | 0.84 | 92 | 1004.5 |
| 20260903150039 | 18 | 284 | 16.1 | 33.8 | 0.30 | 0.84 | 0.84 | 93 | 1004.4 |
| 20260903144524 | 18 | 265 | 19.3 | 41.8 | 0.30 | 0.84 | 0.84 | 94 | 1004.4 |
| 20260903143036 | 18 | 258 | 12.9 | 29.0 | 0.30 | 0.84 | 0.84 | 94 | 1004.3 |
| 20260903141531 | 17 | 235 | 12.9 | 24.1 | 0.28 | 0.81 | 0.81 | 94 | 1004.5 |
| 20260903140021 | 18 | 265 | 14.5 | 20.9 | 0.03 | 0.53 | 0.53 | 94 | 1004.5 |
| 20260903134535 | 17 | 229 | 8.0 | 19.3 | 0.03 | 0.53 | 0.53 | 95 | 1004.5 |
| 20260903133015 | 17 | 219 | 11.3 | 24.1 | 0.20 | 0.53 | 0.53 | 95 | 1004.6 |
| 20260903131513 | 17 | 175 | 8.0 | 12.9 | 0.38 | 0.53 | 0.53 | 95 | 1004.8 |
| 20260903130013 | 17 | 157 | 6.4 | 16.1 | 0.38 | 0.51 | 0.51 | 95 | 1004.8 |
| 20260903124509 | 16 | 174 | 9.7 | 14.5 | 0.41 | 0.51 | 0.51 | 95 | 1005.0 |
| 20260903123019 | 16 | 176 | 8.0 | 12.9 | 0.23 | 0.33 | 0.33 | 94 | 1005.3 |
| 20260903121508 | 16 | 160 | 4.8 | 11.3 | 0.05 | 0.15 | 0.15 | 94 | 1005.2 |
| 20260903120004 | 16 | 167 | 3.2 | 9.7 | 0.03 | 0.18 | 0.15 | 94 | 1005.4 |
| 20260903114604 | 16 | 221 | 8.0 | 12.9 | 0.00 | 0.15 | 0.13 | 94 | 1005.9 |
| 20260903113100 | 16 | 169 | 11.3 | 16.1 | 0.00 | 0.15 | 0.13 | 94 | 1006.0 |
| 20260903111559 | 16 | 186 | 9.7 | 17.7 | 0.00 | 0.15 | 0.13 | 94 | 1006.2 |
| 20260903110058 | 16 | 180 | 8.0 | 17.7 | 0.00 | 0.15 | 0.13 | 94 | 1006.2 |
| 20260903104605 | 16 | 182 | 11.3 | 16.1 | 0.00 | 0.15 | 0.13 | 94 | 1006.4 |
| 20260903103055 | 16 | 175 | 9.7 | 16.1 | 0.00 | 0.15 | 0.13 | 94 | 1006.6 |
| 20260903101553 | 16 | 185 | 6.4 | 14.5 | 0.00 | 0.15 | 0.13 | 94 | 1006.9 |
| 20260903100052 | 16 | 212 | 8.0 | 16.1 | 0.03 | 0.15 | 0.13 | 94 | 1007.1 |
| 20260903094558 | 16 | 179 | 11.3 | 19.3 | 0.03 | 0.15 | 0.13 | 94 | 1007.3 |
| 20260903093055 | 16 | 187 | 11.3 | 16.1 | 0.03 | 0.15 | 0.13 | 94 | 1007.3 |
| 20260903091547 | 16 | 194 | 9.7 | 17.7 | 0.00 | 0.15 | 0.10 | 94 | 1007.6 |
| 20260903090045 | 16 | 196 | 8.0 | 17.7 | 0.00 | 0.15 | 0.10 | 94 | 1008.0 |
| 20260903084542 | 15 | 171 | 8.0 | 16.1 | 0.00 | 0.15 | 0.10 | 95 | 1008.3 |
| 20260903083040 | 16 | 185 | 4.8 | 11.3 | 0.00 | 0.15 | 0.10 | 95 | 1008.4 |
| 20260903081542 | 15 | 180 | 1.6 | 4.8 | 0.00 | 0.15 | 0.10 | 95 | 1008.6 |
| 20260903080036 | 15 | 207 | 1.6 | 12.9 | 0.03 | 0.15 | 0.10 | 95 | 1008.7 |
| 20260903074534 | 15 | 194 | 8.0 | 12.9 | 0.05 | 0.15 | 0.10 | 95 | 1008.8 |
| 20260903073033 | 15 | 204 | 4.8 | 9.7 | 0.05 | 0.15 | 0.10 | 95 | 1009.0 |
| 20260903071526 | 15 | 182 | 3.2 | 9.7 | 0.05 | 0.15 | 0.10 | 95 | 1009.1 |
| 20260903070023 | 14 | 161 | 1.6 | 6.4 | 0.05 | 0.13 | 0.08 | 95 | 1009.3 |
| 20260903064521 | 13 | 160 | 0.0 | 3.2 | 0.03 | 0.10 | 0.05 | 95 | 1009.5 |
| 20260903063017 | 13 | 164 | 0.0 | 1.6 | 0.03 | 0.10 | 0.05 | 95 | 1009.6 |
| 20260903061515 | 13 | 163 | 0.0 | 8.0 | 0.05 | 0.10 | 0.05 | 95 | 1009.7 |
| 20260903060014 | 13 | 157 | 0.0 | 3.2 | 0.03 | 0.08 | 0.05 | 95 | 1009.9 |
| 20260903054511 | 12 | 163 | 0.0 | 3.2 | 0.03 | 0.08 | 0.05 | 95 | 1010.1 |
| 20260903053009 | 12 | 169 | 0.0 | 1.6 | 0.03 | 0.08 | 0.05 | 95 | 1010.2 |
| 20260903051504 | 12 | 169 | 0.0 | 1.6 | 0.00 | 0.05 | 0.03 | 95 | 1010.3 |
| 20260903050003 | 12 | 170 | 0.0 | 3.2 | 0.00 | 0.05 | 0.03 | 95 | 1010.5 |
| 20260903044502 | 12 | 170 | 0.0 | 1.6 | 0.00 | 0.05 | 0.03 | 94 | 1010.6 |
| 20260903043002 | 12 | 170 | 0.0 | 1.6 | 0.00 | 0.05 | 0.03 | 94 | 1010.7 |
| 20260903041558 | 12 | 170 | 0.0 | 6.4 | 0.00 | 0.05 | 0.03 | 94 | 1010.9 |
| 20260903040103 | 12 | 177 | 3.2 | 8.0 | 0.00 | 0.05 | 0.03 | 94 | 1011.1 |
| 20260903034555 | 12 | 198 | 1.6 | 4.8 | 0.03 | 0.08 | 0.03 | 94 | 1011.3 |
| 20260903033053 | 12 | 202 | 3.2 | 8.0 | 0.03 | 0.08 | 0.03 | 94 | 1011.6 |
| 20260903031557 | 12 | 204 | 4.8 | 8.0 | 0.03 | 0.08 | 0.03 | 94 | 1011.8 |
| 20260903030051 | 12 | 198 | 1.6 | 4.8 | 0.03 | 0.08 | 0.03 | 94 | 1011.6 |
| 20260903024550 | 12 | 203 | 1.6 | 6.4 | 0.00 | 0.05 | 0.00 | 94 | 1011.7 |
| 20260903023102 | 12 | 205 | 1.6 | 6.4 | 0.00 | 0.05 | 0.00 | 94 | 1011.9 |
| 20260903021548 | 11 | 204 | 3.2 | 8.0 | 0.00 | 0.05 | 0.00 | 94 | 1012.0 |
| 20260903020044 | 11 | 212 | 1.6 | 4.8 | 0.00 | 0.05 | 0.00 | 94 | 1012.2 |
| 20260903014543 | 11 | 217 | 1.6 | 3.2 | 0.00 | 0.05 | 0.00 | 94 | 1012.3 |
| 20260903013042 | 11 | 217 | 0.0 | 4.8 | 0.00 | 0.05 | 0.00 | 94 | 1012.5 |
| 20260903011540 | 11 | 217 | 1.6 | 4.8 | 0.00 | 0.05 | 0.00 | 93 | 1012.7 |
| 20260903010039 | 11 | 215 | 1.6 | 4.8 | 0.00 | 0.05 | 0.00 | 93 | 1012.7 |
| 20260903004538 | 11 | 215 | 3.2 | 6.4 | 0.00 | 0.05 | 0.00 | 93 | 1012.9 |
| 20260903003041 | 11 | 217 | 3.2 | 6.4 | 0.00 | 0.05 | 0.00 | 93 | 1013.1 |
| 20260903001537 | 11 | 219 | 3.2 | 6.4 | 0.00 | 0.05 | 0.00 | 93 | 1013.0 |
| 20260903000036 | 11 | 227 | 3.2 | 4.8 | 0.00 | 0.05 | 0.00 | 92 | 1013.0 |
| 20260902234534 | 11 | 230 | 1.6 | 6.4 | 0.00 | 0.05 | 0.00 | 92 | 1013.0 |
| 20260902233033 | 11 | 240 | 1.6 | 6.4 | 0.00 | 0.05 | 0.00 | 92 | 1013.1 |
| 20260902231550 | 11 | 231 | 3.2 | 8.0 | 0.00 | 0.05 | 0.00 | 92 | 1013.2 |
| 20260902230031 | 11 | 226 | 3.2 | 6.4 | 0.00 | 0.05 | 0.00 | 92 | 1013.3 |
| 20260902224528 | 11 | 230 | 4.8 | 8.0 | 0.00 | 0.05 | 0.00 | 91 | 1013.4 |
| 20260902223027 | 11 | 227 | 3.2 | 8.0 | 0.00 | 0.05 | 0.00 | 91 | 1013.4 |
| 20260902221525 | 11 | 227 | 4.8 | 8.0 | 0.00 | 0.05 | 0.00 | 91 | 1013.4 |
| 20260902220023 | 11 | 230 | 3.2 | 6.4 | 0.00 | 0.05 | 0.00 | 90 | 1013.5 |
| 20260902214522 | 11 | 237 | 1.6 | 6.4 | 0.00 | 0.05 | 0.05 | 90 | 1013.4 |
| 20260902213022 | 11 | 242 | 3.2 | 6.4 | 0.00 | 0.05 | 0.05 | 89 | 1013.4 |
| 20260902211520 | 11 | 227 | 3.2 | 8.0 | 0.00 | 0.05 | 0.05 | 89 | 1013.4 |
| 20260902210020 | 12 | 253 | 4.8 | 9.7 | 0.00 | 0.05 | 0.05 | 88 | 1013.4 |
| 20260902204517 | 12 | 238 | 3.2 | 8.0 | 0.00 | 0.05 | 0.05 | 88 | 1013.5 |
| 20260902203015 | 12 | 253 | 6.4 | 11.3 | 0.00 | 0.05 | 0.05 | 87 | 1013.5 |
| 20260902201520 | 12 | 236 | 4.8 | 8.0 | 0.00 | 0.05 | 0.05 | 87 | 1013.5 |